Powrót do katalogu

QIANFAN-180

AktywnyŁącznośćPO
NORAD 69397·PAYLOAD·🇨🇳 China

Wystrzelony Jun 4, 2026 z Taiyuan Satellite Launch Center

Loading…

Następne Przeloty (najbliższe 24 godziny)

TLE

ŚwieżeSource: Space-Track

Epoka: Sep 14, 2026, 21:28 UTC

1 69397U 26124R   26257.89446455  .00000133  00000-0  18710-3 0  9993
2 69397  89.0052 352.5197 0001868  95.6221 264.5143 13.51021291 14184

Śledź QIANFAN-180 w czasie rzeczywistym z AllMySat

Download on the App Store